Location: Powder Track
(41.8531°N, 72.3584°W)
Time: 23:24:43
(UTC+00:00)

Vanguard 2 Rocket - Pass Details

Date: 01 August 2021
Orbit: 556 x 3324 km, 32.9° (Epoch: 22 September)

Event Time Altitude Azimuth Distance (km) Brightness Sun altitude
Rises 12:10:33 0° 231° (SW) 2,913 9.1 25.6°
Reaches altitude 10° 12:13:30 10° 212° (SSW) 1,868 8.3 26.1°
Maximum altitude 12:16:19 18° 166° (SSE) 1,373 8.2 26.7°
Drops below altitude 10° 12:19:09 10° 121° (ESE) 1,874 9.6 27.2°
Sets 12:22:07 0° 102° (ESE) 2,927 10.7 27.7°
